Change the Weather History Date:

Wednesday, August 8, 2012

  Actual Average Record
Temperature  
Mean Temperature 70 °F 69 °F  
Max Temperature 82 °F 79 °F 97 °F (1949)
Min Temperature 57 °F 58 °F 50 °F (1954)
Degree Days  
Heating Degree Days 0 0  
Month to date heating degree days 0  
Since 1 June heating degree days 96  
Since 1 July heating degree days 11  
Cooling Degree Days 5 4  
Month to date cooling degree days 65 32  
Year to date cooling degree days 370 245  
Since 1 June cooling degree days 334 237  
Growing Degree Days 19 (Base 50)    
Moisture  
Dew Point 59 °F    
Average Humidity 64    
Maximum Humidity 86    
Minimum Humidity 42    
Precipitation  
Precipitation 0.00 in - 1.46 in (1983)
Month to date precipitation 0.07  
Year to date precipitation 13.96  
Sea Level Pressure  
Sea Level Pressure 29.94 in    
Wind  
Wind Speed 3 mph (SSE)    
Max Wind Speed 14 mph    
Max Gust Speed 15 mph    
Visibility 10 miles    
Events      
T = Trace of Precipitation, MM = Missing Value Source: NWS Daily Summary

Daily Weather History Graph

Daily Weather History Graph

Search for Another Location

Airport or City:

Trip Planner

Search our weather history database for the weather conditions in past years. The results will help you decide how hot, cold, wet, or windy it might be!

Date:

Astronomy

Aug. 08, 2012 Rise Set
Actual Time 5:48 AM EDT 8:09 PM EDT
Civil Twilight 5:16 AM EDT 8:41 PM EDT
Nautical Twilight 4:35 AM EDT 9:21 PM EDT
Astronomical Twilight 3:50 AM EDT 10:07 PM EDT
Moon 11:01 PM EDT (8/8) 12:51 PM EDT (8/8)
Length of Visible Light 15h 25m
Length of Day
14h 20m
Waning Gibbous, 61% of the Moon is Illuminated
Aug 8
Waning Gibbous
Aug 9
Last Quarter
Aug 17
New
Aug 24
First Quarter
Aug 31
Full

Hourly Weather History & Observations

Time (EDT) Temp. Heat Index Dew Point Humidity Pressure Visibility Wind Dir Wind Speed Gust Speed Precip Events Conditions
12:53 AM 68.0 °F - 55.9 °F 65% 29.93 in 10.0 mi SW 4.6 mph - N/A   Mostly Cloudy
1:53 AM 66.0 °F - 54.0 °F 65% 29.93 in 10.0 mi North - - N/A   Partly Cloudy
2:53 AM 63.0 °F - 55.9 °F 78% 29.93 in 10.0 mi Calm Calm - N/A   Mostly Cloudy
3:53 AM 64.0 °F - 54.0 °F 70% 29.94 in 10.0 mi West 3.5 mph - N/A   Scattered Clouds
4:53 AM 61.0 °F - 54.0 °F 78% 29.95 in 10.0 mi Calm Calm - N/A   Clear
5:53 AM 57.9 °F - 54.0 °F 87% 29.96 in 10.0 mi Calm Calm - N/A   Clear
6:53 AM 61.0 °F - 55.9 °F 83% 29.96 in 10.0 mi Calm Calm - N/A   Clear
7:33 AM 66.2 °F - 55.4 °F 68% 29.97 in 10.0 mi Calm Calm - N/A   Partly Cloudy
7:53 AM 68.0 °F - 55.9 °F 65% 29.98 in 10.0 mi Calm Calm - N/A   Partly Cloudy
8:53 AM 70.0 °F - 57.9 °F 65% 29.99 in 10.0 mi Calm Calm - N/A   Overcast
9:53 AM 72.0 °F - 60.1 °F 66% 29.99 in 10.0 mi SE 5.8 mph - N/A   Partly Cloudy
10:53 AM 73.9 °F - 57.9 °F 57% 29.98 in 10.0 mi SE 3.5 mph - N/A   Clear
11:53 AM 77.0 °F - 62.1 °F 60% 29.97 in 10.0 mi ESE 6.9 mph - N/A   Partly Cloudy
12:53 PM 80.1 °F 80.4 °F 57.0 °F 45% 29.96 in 10.0 mi SE 12.7 mph - N/A   Clear
1:53 PM 81.0 °F 80.8 °F 55.9 °F 42% 29.94 in 10.0 mi SE 8.1 mph - N/A   Clear
2:53 PM 81.0 °F 81.7 °F 61.0 °F 50% 29.94 in 10.0 mi SE 8.1 mph - N/A   Mostly Cloudy
3:53 PM 80.1 °F 81.2 °F 62.1 °F 54% 29.93 in 10.0 mi SSE 3.5 mph - N/A   Mostly Cloudy
4:53 PM 80.1 °F 81.5 °F 63.0 °F 56% 29.93 in 10.0 mi Calm Calm - N/A   Mostly Cloudy
5:53 PM 79.0 °F - 64.9 °F 62% 29.92 in 10.0 mi Calm Calm - N/A   Overcast
7:53 PM 78.1 °F - 63.0 °F 60% 29.91 in 10.0 mi North 3.5 mph - N/A   Partly Cloudy
8:53 PM 73.9 °F - 62.1 °F 66% 29.92 in 10.0 mi NW 3.5 mph - N/A   Clear
9:53 PM 70.0 °F - 63.0 °F 78% 29.91 in 10.0 mi Calm Calm - N/A   Clear
10:53 PM 69.1 °F - 63.0 °F 81% 29.91 in 10.0 mi NW 3.5 mph - N/A   Clear
11:53 PM 71.1 °F - 62.1 °F 73% 29.92 in 10.0 mi NNW 3.5 mph - N/A   Mostly Cloudy